N5AJY Weather Reports


time (UTC)temp
F
wind
direction
speed
knots
gust
knots
rain 1hr
in
rain 24hr
in
rain mn
in
humidity
%
barometer
mb
20260502210153 68 0 0.0 0.0 0.00 0.00 0.00 37 1016.1
20260502205654 68 0 0.0 0.0 0.00 0.00 0.00 38 1016.1
20260502205153 68 0 0.0 0.0 0.00 0.00 0.00 39 1016.1
20260502204654 69 0 0.0 0.0 0.00 0.00 0.00 37 1016.2
20260502204154 68 0 0.0 0.0 0.00 0.00 0.00 37 1016.3
20260502203653 69 0 0.0 0.0 0.00 0.00 0.00 39 1016.4
20260502203153 69 0 0.0 0.0 0.00 0.00 0.00 37 1016.3
20260502202653 69 0 0.0 0.0 0.00 0.00 0.00 35 1016.5
20260502202152 70 0 0.0 0.0 0.00 0.00 0.00 35 1016.4
20260502201653 70 0 0.0 0.0 0.00 0.00 0.00 36 1016.5
20260502201154 70 0 0.0 0.0 0.00 0.00 0.00 36 1016.4
20260502200653 69 0 0.0 0.0 0.00 0.00 0.00 36 1016.5
20260502200152 70 0 0.0 0.0 0.00 0.00 0.00 33 1016.6
20260502195653 69 0 0.0 0.0 0.00 0.00 0.00 35 1016.6
20260502195153 69 0 0.0 0.0 0.00 0.00 0.00 32 1016.6
20260502194653 69 0 0.0 0.0 0.00 0.00 0.00 34 1016.7
20260502194154 69 0 0.0 0.0 0.00 0.00 0.00 33 1016.7
20260502193653 70 287 0.0 2.6 0.00 0.00 0.00 36 1016.7
20260502193154 69 287 0.0 2.6 0.00 0.00 0.00 36 1016.8
20260502192653 70 0 0.0 0.0 0.00 0.00 0.00 34 1016.7
20260502192202 70 0 0.0 0.0 0.00 0.00 0.00 30 1016.7
20260502191155 70 0 0.0 0.0 0.00 0.00 0.00 38 1016.8
20260502190652 69 0 0.0 0.0 0.00 0.00 0.00 38 1016.9
20260502190156 69 0 0.0 0.0 0.00 0.00 0.00 36 1016.9
20260502185652 69 0 0.0 0.0 0.00 0.00 0.00 40 1016.8
20260502185153 68 0 0.0 0.0 0.00 0.00 0.00 39 1016.9
20260502184654 68 0 0.0 0.0 0.00 0.00 0.00 38 1017.0
20260502184154 68 0 0.0 0.0 0.00 0.00 0.00 39 1017.0
20260502183653 68 0 0.0 0.0 0.00 0.00 0.00 39 1017.0
20260502183154 68 0 0.0 0.0 0.00 0.00 0.00 42 1017.1
20260502182653 68 0 0.0 0.0 0.00 0.00 0.00 42 1017.1
20260502182154 67 0 0.0 0.0 0.00 0.00 0.00 45 1017.2
20260502181653 67 0 0.0 0.0 0.00 0.00 0.00 44 1017.2
20260502181154 67 0 0.0 0.0 0.00 0.00 0.00 41 1017.3
20260502180653 67 0 0.0 0.0 0.00 0.00 0.00 42 1017.3
20260502180154 67 0 0.0 0.0 0.00 0.00 0.00 43 1017.5
20260502170152 65 0 0.0 0.0 0.00 0.00 0.00 46 1017.9
20260502164153 64 0 0.0 0.0 0.00 0.00 0.00 46 1018.0
20260502163654 64 0 0.0 0.0 0.00 0.00 0.00 45 1018.0
20260502163153 64 0 0.0 0.0 0.00 0.00 0.00 47 1018.0
20260502162153 64 0 0.0 0.0 0.00 0.00 0.00 46 1018.0
20260502161654 64 0 0.0 0.0 0.00 0.00 0.00 47 1017.9
20260502161153 64 350 0.0 0.9 0.00 0.00 0.00 47 1017.9
20260502160652 64 350 0.0 0.9 0.00 0.00 0.00 46 1017.9
20260502160153 64 0 0.0 0.0 0.00 0.00 0.00 48 1017.9
20260502152154 63 0 0.0 0.0 0.00 0.00 0.00 50 1017.9
20260502151656 62 0 0.0 0.0 0.00 0.00 0.00 52 1017.9
20260502151153 62 0 0.0 0.0 0.00 0.00 0.00 53 1017.9
20260502150654 62 0 0.0 0.0 0.00 0.00 0.00 53 1017.9
20260502150153 61 0 0.0 0.0 0.00 0.00 0.00 53 1018.0
20260502130653 56 0 0.0 0.0 0.00 0.00 0.00 78 1017.1
20260502130153 56 0 0.0 0.0 0.00 0.00 0.00 79 1017.0
20260502123655 53 0 0.0 0.0 0.00 0.00 0.00 83 1016.7
20260502123153 52 0 0.0 0.0 0.00 0.00 0.00 84 1016.7
20260502122654 52 0 0.0 0.0 0.00 0.00 0.00 84 1016.7
20260502122154 51 0 0.0 0.0 0.00 0.00 0.00 83 1016.6
20260502121654 51 0 0.0 0.0 0.00 0.00 0.00 83 1016.6
20260502121153 51 0 0.0 0.0 0.00 0.00 0.00 83 1016.5
20260502120654 51 0 0.0 0.0 0.00 0.00 0.00 83 1016.5
20260502120153 51 0 0.0 0.0 0.00 0.00 0.00 83 1016.4
20260502115654 51 0 0.0 0.0 0.00 0.00 0.00 83 1016.3
20260502115153 51 0 0.0 0.0 0.00 0.00 0.00 83 1016.2
20260502114656 51 0 0.0 0.0 0.00 0.00 0.00 83 1016.0
20260502114153 51 0 0.0 0.0 0.00 0.00 0.00 83 1016.1
20260502113652 51 0 0.0 0.0 0.00 0.00 0.00 83 1016.1
20260502113157 51 0 0.0 0.0 0.00 0.00 0.00 83 1015.9
20260502112653 51 0 0.0 0.0 0.00 0.00 0.00 83 1015.9
20260502111654 51 0 0.0 0.0 0.00 0.00 0.00 83 1015.9
20260502111157 51 0 0.0 0.0 0.00 0.00 0.00 83 1015.9
20260502110653 51 0 0.0 0.0 0.00 0.00 0.00 83 1015.8
20260502110153 51 0 0.0 0.0 0.00 0.00 0.00 83 1015.8
20260502105653 51 0 0.0 0.0 0.00 0.00 0.00 83 1015.7
20260502105154 51 0 0.0 0.0 0.00 0.00 0.00 83 1015.6
20260502104656 51 0 0.0 0.0 0.00 0.00 0.00 83 1015.7
20260502104154 51 0 0.0 0.0 0.00 0.00 0.00 83 1015.7
20260502103653 51 0 0.0 0.0 0.00 0.00 0.00 84 1015.5
20260502103155 51 0 0.0 0.0 0.00 0.00 0.00 85 1015.7
20260502102656 51 0 0.0 0.0 0.00 0.00 0.00 85 1015.6
20260502102153 52 0 0.0 0.0 0.00 0.00 0.00 85 1015.5
20260502101654 52 0 0.0 0.0 0.00 0.00 0.00 85 1015.3
20260502101152 52 0 0.0 0.0 0.00 0.00 0.00 83 1015.4
20260502100653 52 0 0.0 0.0 0.00 0.00 0.00 83 1015.4
20260502100153 52 0 0.0 0.0 0.00 0.00 0.00 82 1015.5
20260502091153 52 0 0.0 0.0 0.00 0.00 0.00 76 1015.3
20260502090652 52 0 0.0 0.0 0.00 0.00 0.00 77 1015.3
20260502090154 52 0 0.0 0.0 0.00 0.00 0.00 76 1015.4
20260502071153 49 0 0.0 0.0 0.00 0.00 0.00 83 1015.0
20260502070654 49 0 0.0 0.0 0.00 0.00 0.00 82 1015.0
20260502070153 48 0 0.0 0.0 0.00 0.00 0.00 81 1015.0
20260502065653 48 0 0.0 0.0 0.00 0.00 0.00 80 1015.0
20260502065153 48 0 0.0 0.0 0.00 0.00 0.00 80 1015.0
20260502064652 48 0 0.0 0.0 0.00 0.00 0.00 80 1015.0
20260502063652 48 0 0.0 0.0 0.00 0.00 0.00 80 1015.1
20260502063153 48 0 0.0 0.0 0.00 0.00 0.00 80 1015.1
20260502062654 48 0 0.0 0.0 0.00 0.00 0.00 81 1015.1
20260502062154 48 0 0.0 0.0 0.00 0.00 0.00 81 1015.0
20260502061652 48 0 0.0 0.0 0.00 0.00 0.00 81 1014.9
20260502061154 48 0 0.0 0.0 0.00 0.00 0.00 81 1014.8
20260502060653 48 0 0.0 0.0 0.00 0.00 0.00 80 1014.8
20260502060154 48 0 0.0 0.0 0.00 0.00 0.00 79 1014.8
20260502055653 49 0 0.0 0.0 0.00 0.00 0.00 78 1014.8
20260502055154 49 0 0.0 0.0 0.00 0.00 0.00 78 1014.8
20260502054653 49 0 0.0 0.0 0.00 0.00 0.00 76 1014.8
20260502054154 49 0 0.0 0.0 0.00 0.00 0.00 77 1014.8
20260502053653 49 0 0.0 0.0 0.00 0.00 0.00 78 1014.8
20260502053154 50 0 0.0 0.0 0.00 0.00 0.00 78 1014.7
20260502052653 50 0 0.0 0.0 0.00 0.00 0.00 78 1014.6
20260502052152 50 0 0.0 0.0 0.00 0.00 0.00 77 1014.6
20260502051653 50 0 0.0 0.0 0.00 0.00 0.00 77 1014.6
20260502051152 50 0 0.0 0.0 0.00 0.00 0.00 77 1014.7
20260502050654 50 0 0.0 0.0 0.00 0.00 0.00 76 1014.8
20260502050153 50 0 0.0 0.0 0.00 0.00 0.00 77 1014.8
20260502045653 50 0 0.0 0.0 0.00 0.00 0.00 77 1014.8
20260502045154 50 0 0.0 0.0 0.00 0.00 0.00 78 1014.8
20260502044654 50 0 0.0 0.0 0.00 0.00 0.00 78 1014.9
20260502044154 50 0 0.0 0.0 0.00 0.00 0.00 77 1015.0
20260502043653 50 0 0.0 0.0 0.00 0.00 0.00 77 1014.9
20260502043154 50 0 0.0 0.0 0.00 0.00 0.00 77 1015.0
20260502042653 50 0 0.0 0.0 0.00 0.00 0.00 77 1015.0
20260502042154 50 0 0.0 0.0 0.00 0.00 0.00 76 1015.0
20260502041653 50 0 0.0 0.0 0.00 0.00 0.00 76 1014.9
20260502041152 51 0 0.0 0.0 0.00 0.00 0.00 75 1015.0
20260502040653 51 0 0.0 0.0 0.00 0.00 0.00 74 1015.0
20260502040152 51 0 0.0 0.0 0.00 0.00 0.00 74 1015.0
20260502035653 51 0 0.0 0.0 0.00 0.00 0.00 75 1015.0
20260502035152 52 0 0.0 0.0 0.00 0.00 0.00 74 1015.0
20260502034654 52 0 0.0 0.0 0.00 0.00 0.00 73 1015.1
20260502034153 52 0 0.0 0.0 0.00 0.00 0.00 72 1015.1
20260502033654 52 0 0.0 0.0 0.00 0.00 0.00 73 1015.0
20260502033153 52 0 0.0 0.0 0.00 0.00 0.00 72 1015.0
20260502032654 53 0 0.0 0.0 0.00 0.00 0.00 72 1015.0
20260502032153 53 0 0.0 0.0 0.00 0.00 0.00 70 1015.1
20260502031654 53 0 0.0 0.0 0.00 0.00 0.00 71 1015.0
20260502031153 53 0 0.0 0.0 0.00 0.00 0.00 69 1015.1
20260502030652 53 0 0.0 0.0 0.00 0.00 0.00 69 1015.0
20260502030153 54 0 0.0 0.0 0.00 0.00 0.00 69 1014.9
20260502025652 54 0 0.0 0.0 0.00 0.00 0.00 68 1014.9
20260502025153 54 0 0.0 0.0 0.00 0.00 0.00 67 1014.9
20260502024655 54 0 0.0 0.0 0.00 0.00 0.00 68 1014.8
20260502024154 54 0 0.0 0.0 0.00 0.00 0.00 69 1014.8
20260502023653 55 0 0.0 0.0 0.00 0.00 0.00 67 1014.7
20260502023154 55 0 0.0 0.0 0.00 0.00 0.00 67 1014.5
20260502022654 55 0 0.0 0.0 0.00 0.00 0.00 65 1014.6
20260502022153 55 0 0.0 0.0 0.00 0.00 0.00 65 1014.5
20260502021654 55 0 0.0 0.0 0.00 0.00 0.00 63 1014.4
20260502021153 56 0 0.0 0.0 0.00 0.00 0.00 63 1014.3
20260502020654 56 0 0.0 0.0 0.00 0.00 0.00 62 1014.3
20260502020153 56 0 0.0 0.0 0.00 0.00 0.00 62 1014.2
20260502015654 57 0 0.0 0.0 0.00 0.00 0.00 60 1014.2
20260502015153 57 0 0.0 0.0 0.00 0.00 0.00 60 1014.1
20260502014654 57 0 0.0 0.0 0.00 0.00 0.00 59 1014.0
20260502014153 58 0 0.0 0.0 0.00 0.00 0.00 57 1013.9
20260502013654 58 0 0.0 0.0 0.00 0.00 0.00 55 1013.9
20260502013153 59 0 0.0 0.0 0.00 0.00 0.00 57 1013.8
20260502012653 59 0 0.0 0.0 0.00 0.00 0.00 55 1013.7
20260502012153 60 0 0.0 0.0 0.00 0.00 0.00 54 1013.7
20260502011653 60 0 0.0 0.0 0.00 0.00 0.00 52 1013.7
20260502011154 60 0 0.0 0.0 0.00 0.00 0.00 47 1013.5
20260502010653 61 0 0.0 0.0 0.00 0.00 0.00 47 1013.4
20260502010154 61 0 0.0 0.0 0.00 0.00 0.00 48 1013.5
20260502005654 61 0 0.0 0.0 0.00 0.00 0.00 48 1013.5
20260502005153 62 0 0.0 0.0 0.00 0.00 0.00 50 1013.5
20260502004654 62 0 0.0 0.0 0.00 0.00 0.00 46 1013.4
20260502004153 63 0 0.0 0.0 0.00 0.00 0.00 44 1013.4
20260502003654 63 0 0.0 0.0 0.00 0.00 0.00 43 1013.4
20260502003153 63 0 0.0 0.0 0.00 0.00 0.00 43 1013.4
20260502002654 64 0 0.0 0.0 0.00 0.00 0.00 42 1013.4
20260502002153 64 0 0.0 0.0 0.00 0.00 0.00 42 1013.3
20260502001652 64 0 0.0 0.0 0.00 0.00 0.00 40 1013.2
20260502001153 64 0 0.0 0.0 0.00 0.00 0.00 39 1013.1
20260502000652 64 0 0.0 0.0 0.00 0.00 0.00 39 1013.1
20260502000154 65 0 0.0 0.0 0.00 0.00 0.00 39 1013.0
20260501235653 65 0 0.0 0.0 0.00 0.00 0.00 39 1012.9
20260501235154 65 0 0.0 0.0 0.00 0.00 0.00 38 1013.0
20260501234654 65 0 0.0 0.0 0.00 0.00 0.00 37 1012.9
20260501234154 65 0 0.0 0.0 0.00 0.00 0.00 38 1012.9
20260501233653 65 0 0.0 0.0 0.00 0.00 0.00 37 1012.9
20260501233154 65 0 0.0 0.0 0.00 0.00 0.00 36 1012.8
20260501232653 65 0 0.0 0.0 0.00 0.00 0.00 36 1012.9
20260501232152 66 0 0.0 0.0 0.00 0.00 0.00 35 1012.8
20260501231653 66 0 0.0 0.0 0.00 0.00 0.00 37 1012.7
20260501231152 66 0 0.0 0.0 0.00 0.00 0.00 35 1012.8
20260501230653 66 0 0.0 0.0 0.00 0.00 0.00 34 1012.8
20260501230153 66 0 0.0 0.0 0.00 0.00 0.00 33 1012.9
20260501225655 66 0 0.0 0.0 0.00 0.00 0.00 35 1012.9
20260501225153 66 66 0.0 0.9 0.00 0.00 0.00 35 1012.8
20260501224654 66 66 0.0 0.9 0.00 0.00 0.00 34 1012.9
20260501224153 66 0 0.0 0.0 0.00 0.00 0.00 35 1012.8
20260501223654 66 0 0.0 0.0 0.00 0.00 0.00 35 1012.7
20260501223153 66 0 0.0 0.0 0.00 0.00 0.00 36 1012.8
20260501222654 66 0 0.0 0.0 0.00 0.00 0.00 37 1012.8
20260501222153 66 0 0.0 0.0 0.00 0.00 0.00 35 1012.7
20260501221654 66 67 0.0 2.6 0.00 0.00 0.00 35 1012.7
20260501221153 66 67 0.0 2.6 0.00 0.00 0.00 36 1012.7
20260501220653 66 0 0.0 0.0 0.00 0.00 0.00 37 1012.6
20260501220154 66 0 0.0 0.0 0.00 0.00 0.00 36 1012.6
20260501215653 66 49 0.0 0.9 0.00 0.00 0.00 34 1012.5
20260501215152 66 47 0.0 0.9 0.00 0.00 0.00 35 1012.4
20260501214654 67 46 0.0 0.9 0.00 0.00 0.00 34 1012.4
20260501214153 67 0 0.0 0.0 0.00 0.00 0.00 34 1012.5
20260501213654 67 0 0.0 0.0 0.00 0.00 0.00 34 1012.6
20260501213153 66 355 0.0 0.9 0.00 0.00 0.00 36 1012.6
20260501212654 66 355 0.0 0.9 0.00 0.00 0.00 33 1012.7
20260501212153 67 0 0.0 0.0 0.00 0.00 0.00 33 1012.7
20260501211655 67 77 0.0 1.7 0.00 0.00 0.00 33 1012.8